FW9776 Weather Reports


time (UTC)temp
F
wind
direction
speed
knots
gust
knots
rain 1hr
in
rain 24hr
in
rain mn
in
humidity
%
barometer
mb
20260507220054 54 173 6.1 10.4 0.00 0.88 0.88 94 1001.9
20260507214555 54 154 4.3 8.7 0.00 0.88 0.88 95 1001.7
20260507213054 54 145 4.3 9.6 0.00 0.88 0.88 95 1001.4
20260507211554 55 133 5.2 10.4 0.00 0.88 0.88 95 1001.7
20260507210056 55 145 7.0 12.2 0.00 0.88 0.88 95 1001.8
20260507204555 55 175 5.2 10.4 0.02 0.88 0.88 96 1002.0
20260507203054 54 169 2.6 11.3 0.03 0.88 0.88 96 1001.8
20260507201606 54 169 6.1 12.2 0.03 0.88 0.88 96 1001.0
20260507200057 53 182 7.8 15.6 0.06 0.87 0.87 96 1000.9
20260507194554 53 114 8.7 13.0 0.11 0.85 0.85 96 1000.9
20260507193056 54 135 7.0 11.3 0.22 0.85 0.85 96 1002.3
20260507191558 53 121 5.2 8.7 0.28 0.84 0.84 96 1002.2
20260507190059 54 136 3.5 8.7 0.31 0.81 0.81 95 1002.8
20260507184559 54 165 6.1 13.0 0.35 0.74 0.74 95 1003.2
20260507183055 54 139 6.1 12.2 0.33 0.62 0.62 94 1003.9
20260507181556 55 178 7.0 13.9 0.41 0.55 0.55 94 1003.9
20260507180057 55 177 8.7 14.8 0.48 0.49 0.49 94 1004.0
20260507174605 55 181 7.0 16.5 0.38 0.39 0.39 94 1004.3
20260507173101 55 183 6.1 12.2 0.29 0.29 0.29 94 1005.0
20260507171604 55 193 8.7 20.9 0.14 0.14 0.14 93 1004.9
20260507170055 57 179 6.1 21.7 0.01 0.01 0.01 93 1004.2
20260507164556 58 154 9.6 25.2 0.00 0.00 0.00 93 1003.9
20260507163122 58 176 9.6 26.1 0.00 0.00 0.00 92 1004.0
20260507161557 58 138 7.8 20.9 0.00 0.00 0.00 91 1004.3
20260507160056 59 146 11.3 20.0 0.00 0.00 0.00 88 1004.7
20260507154557 59 173 13.0 29.5 0.00 0.00 0.00 87 1005.2
20260507153056 59 164 13.9 26.9 0.00 0.00 0.00 87 1005.5
20260507151555 58 152 12.2 22.6 0.00 0.00 0.00 88 1005.9
20260507150101 58 175 13.9 30.4 0.00 0.00 0.00 88 1006.5
20260507144617 59 157 10.4 25.2 0.00 0.00 0.00 88 1006.9
20260507143059 59 150 11.3 27.8 0.00 0.00 0.00 85 1007.1
20260507141626 59 185 10.4 27.8 0.00 0.00 0.00 86 1007.2
20260507134558 60 176 11.3 23.5 0.00 0.00 0.00 85 1007.5
20260507133056 60 148 12.2 25.2 0.00 0.00 0.00 85 1007.9
20260507131555 60 144 13.0 27.8 0.00 0.00 0.00 86 1007.9
20260507130105 60 188 11.3 24.3 0.00 0.00 0.00 88 1007.7
20260507124605 59 180 8.7 26.1 0.00 0.00 0.00 90 1008.6
20260507123056 58 160 13.0 28.7 0.00 0.00 0.00 89 1008.3
20260507121559 58 175 13.9 30.4 0.00 0.00 0.00 89 1008.5
20260507120055 58 176 13.9 26.9 0.00 0.00 0.00 89 1008.2
20260507114558 57 183 12.2 20.9 0.00 0.00 0.00 92 1008.6
20260507113056 56 154 13.0 25.2 0.00 0.00 0.00 92 1009.2
20260507111555 56 180 11.3 21.7 0.00 0.00 0.00 92 1009.1
20260507110059 56 181 11.3 22.6 0.00 0.00 0.00 92 1009.1
20260507104557 56 158 11.3 25.2 0.00 0.00 0.00 92 1009.3
20260507103100 56 173 10.4 26.1 0.00 0.00 0.00 92 1009.3
20260507101556 57 160 9.6 20.9 0.00 0.00 0.00 92 1009.6
20260507100056 56 139 9.6 20.9 0.00 0.00 0.00 93 1009.2
20260507094554 55 157 6.1 14.8 0.00 0.00 0.00 94 1009.8
20260507093059 55 142 9.6 20.9 0.00 0.00 0.00 94 1010.0
20260507091559 55 152 11.3 18.2 0.00 0.00 0.00 94 1010.4
20260507090056 54 179 11.3 20.0 0.00 0.00 0.00 94 1010.4
20260507084557 54 153 7.0 16.5 0.00 0.00 0.00 94 1010.2
20260507083056 54 181 7.0 15.6 0.00 0.00 0.00 94 1010.6
20260507081558 54 182 7.8 15.6 0.00 0.00 0.00 94 1011.0
20260507080053 54 168 7.0 13.9 0.00 0.00 0.00 94 1011.2
20260507074556 54 124 7.0 17.4 0.00 0.00 0.00 93 1011.3
20260507073101 53 155 7.8 18.2 0.00 0.00 0.00 92 1010.9
20260507071557 53 158 9.6 20.9 0.00 0.00 0.00 92 1011.3
20260507070100 53 147 6.1 15.6 0.00 0.00 0.00 91 1011.7
20260507064556 53 169 7.8 16.5 0.00 0.00 0.00 90 1012.6
20260507063055 53 143 6.1 17.4 0.00 0.00 0.00 89 1012.4
20260507061554 53 174 7.0 13.0 0.00 0.00 0.00 89 1012.7
20260507060104 54 200 8.7 15.6 0.00 0.00 0.00 89 1012.5
20260507054604 53 144 4.3 9.6 0.00 0.00 0.00 89 1012.8
20260507053059 53 129 5.2 9.6 0.00 0.00 0.00 89 1013.0
20260507051556 53 120 1.7 7.0 0.00 0.00 0.00 89 1013.5
20260507050058 53 115 2.6 8.7 0.00 0.00 0.00 89 1014.1
20260507044606 53 123 1.7 4.3 0.00 0.00 0.00 89 1014.4
20260507043104 52 113 3.5 7.0 0.00 0.00 0.00 89 1014.6
20260507041553 52 96 4.3 8.7 0.00 0.00 0.00 89 1014.9
20260507040056 52 126 6.1 9.6 0.00 0.00 0.00 89 1015.2
20260507034606 52 120 5.2 8.7 0.00 0.00 0.00 88 1015.5
20260507033058 52 108 4.3 8.7 0.00 0.00 0.00 87 1016.0
20260507031554 53 114 4.3 7.8 0.00 0.00 0.00 87 1016.1
20260507024557 53 113 3.5 7.8 0.00 0.00 0.00 85 1016.3
20260507023056 54 107 6.1 10.4 0.00 0.00 0.00 86 1016.5
20260507021557 54 93 4.3 7.8 0.00 0.00 0.00 86 1016.5
20260507020059 54 120 3.5 7.0 0.00 0.00 0.00 86 1016.7
20260507014558 54 108 4.3 7.8 0.00 0.00 0.00 86 1016.7
20260507013101 54 93 5.2 9.6 0.00 0.00 0.00 86 1017.0
20260507011557 54 116 4.3 9.6 0.00 0.00 0.00 85 1017.1
20260507010056 55 121 4.3 11.3 0.00 0.00 0.00 84 1017.0
20260507004600 55 156 4.3 13.9 0.00 0.00 0.00 84 1016.9
20260507003057 55 158 6.1 10.4 0.00 0.00 0.00 83 1017.1
20260507001554 56 164 7.0 13.0 0.00 0.00 0.00 83 1017.0
20260507000056 56 170 4.3 11.3 0.00 0.00 0.00 82 1017.0
20260506234557 56 127 4.3 13.9 0.00 0.00 0.00 81 1017.1
20260506233056 56 164 7.0 13.9 0.00 0.00 0.00 79 1017.2
20260506231558 57 151 7.0 17.4 0.00 0.00 0.00 77 1016.9
20260506230056 58 174 6.1 20.9 0.00 0.00 0.00 75 1016.8
20260506224607 60 156 7.8 17.4 0.00 0.00 0.00 74 1016.6
20260506223057 60 187 7.0 16.5 0.00 0.00 0.00 73 1016.4
20260506221558 62 133 6.1 19.1 0.00 0.00 0.00 71 1016.2